Preview of NWS' New Version of Forecast
This preview is not operational and should not be used for support decisions.

Regional Weather Roundup (RWR)

Issued by National Weather Service (NWS)

                            
000
ASCA42 TJSJ 161610
RWRPR 
PUERTO RICO/U.S. VIRGIN ISLANDS HOURLY WEATHER ROUNDUP
NATIONAL WEATHER SERVICE SAN JUAN PR
1200 PM AST SAT FEB 16 2019

PRZ001>002-007>008-010-161700-
PUERTO RICO
  
CITY           SKY/WX    TMP DP  RH WIND       PRES   REMARKS
SAN JUAN LMM   MOSUNNY   86  70  58 SE9       30.04F HX  90           
AGUADILLA      SUNNY     82 N/A N/A NE7       30.06F                  
CEIBA          MOSUNNY   81  73  78 SE12      30.07F                  
$$

VIZ001>002-161700-
U.S. VIRGIN ISLANDS
  
CITY           SKY/WX    TMP DP  RH WIND       PRES   REMARKS
CHARLOTTE AMA  MOSUNNY   82  73  74 SE10      30.05F                  
CHRISTIANSTED  MOSUNNY   86  73  66 SE13      30.06F HX  93           
$$

HOURLY WEATHER ROUNDUP FOR THE NEWS MEDIA
  
CITY           SKY/WX    TMP DP  RH WIND       PRES   REMARKS
ORLANDO        FAIR      74  59  59 SW14      29.93S                  
NEW YORK       FAIR      40  19  43 N14G26    29.89R WCI  32          
NEWARK         FAIR      41  17  38 NW16      29.89R                  
CHICAGO        CLOUDY    22  15  75 N5        30.11R WCI  16          
HARTFORD       FAIR      39  22  50 W13       29.79S WCI  31          
BOSTON         FAIR      40  18  41 W14       29.78F WCI  32          
DALLAS         CLOUDY    36  32  85 VRB3      29.92F                  
PHILADELPHIA   PTSUNNY   40  18  41 N10G18    29.92S WCI  33          
LOS ANGELES    MOSUNNY   50  37  61 NW5       30.17R                  
WASHINGTON DC  PTSUNNY   38  19  46 NW13      29.95R WCI  30